Temperature
15 15 15 15 15 14 14 14 14 14 14 15 15 15 15 15 16 16 15 16 16 15 15 15 15 15 15 15 15 15 14 14 14 14 15 15 15 15
15 14 14 14 14 14 14 14 14 14 14 14 14 14 15 15 15 15 15 15 15 15 15 15 15 14 14 14 14 14 14 14 14 14 14 14 14 14
14 14 14 14 14 14 14 14 14 14 14 14 14 14 14 14 14 15 15 15 15 15 15 15 14 14 14 14 14 14 14 14 14 14 14 14 14 14
13 13 13 13 13 13 14 13 14 14 14 13 13 13 13 14 14 14 14 14 14 14 14 14 14 14 14 14 14 14 14 14 14 14 14 14 14 13
13 13 13 13 13 13 13 13 13 13 13 13 13 13 13 14 14 14 14 14 14 14 14 14 14 14 14 14 14 14 14 14 14 14 13 13 13 13
13 13 13 13 13 13 13 13 13 13 13 13 13 13 13 13 13 14 13 14 13 13 13 13 13 13 13 13 13 13 13 13 13 13 13 13 13 12
13 13 13 13 13 13 13 13 13 14 13 13 13 13 13 13 13 13 13 13 13 13 13 13 13 13 13 13 13 13 13 13 13 13 12 12 12 12
12 13 13 13 13 13 13 13 13 13 13 13 13 13 13 13 13 13 13 13 12 12 12 12 12 12 12 12 12 12 12 12 12 12 12 12 12 12
12 13 13 13 13 13 14 14 14 14 14 13 14 13 13 13 13 13 13 13 12 12 12 11 11 11 11 11 11 11 11 11 11 11 11 11 11 11
12 12 13 13 13 13 13 13 13 13 13 13 13 13 13 13 13 13 13 12 12 12 11 11 11 10 10 10 10 11 11 11 11 11 10 10 10 10
12 12 12 12 13 13 13 13 13 13 14 14 14 14 14 13 13 13 12 12 12 11 11 11 10 10 10 10 10 10 10 10 10 10 10 10 10 9
11 12 12 12 13 13 13 13 13 13 13 13 13 13 13 13 13 12 12 12 12 11 11 11 10 10 10 9 9 9 9 9 9 9 9 9 9 8
11 11 12 12 13 13 13 13 13 13 13 13 13 12 12 12 12 12 12 12 12 11 11 11 11 10 10 9 9 8 8 8 8 8 8 8 8 8
11 11 11 12 12 13 13 13 13 13 13 12 12 12 12 12 12 12 12 12 12 11 11 11 10 10 10 9 8 8 8 8 7 7 7 7 7 7
11 11 11 12 12 12 13 13 13 12 12 12 12 12 12 12 12 11 11 11 11 11 11 10 10 10 10 9 8 8 8 7 7 6 6 6 6 6
10 11 11 11 12 12 12 12 12 12 12 12 12 12 12 11 11 11 10 10 10 10 10 10 10 9 9 9 8 8 7 7 6 6 6 6 6 5
10 10 11 11 11 11 12 12 12 12 12 12 12 11 11 11 10 10 10 10 10 10 9 9 9 9 9 8 7 7 7 7 6 6 5 5 5 5
10 10 10 11 11 11 11 12 12 11 11 11 11 11 11 10 10 10 10 10 9 9 9 8 8 8 8 8 7 7 6 6 6 5 5 5 5 5
10 10 10 11 11 11 11 11 11 11 11 11 11 10 10 10 10 9 9 9 9 9 8 8 7 8 8 8 7 7 6 6 5 5 5 5 5 5
10 10 10 10 11 11 11 11 11 11 11 11 10 10 10 10 9 9 9 9 8 8 8 8 8 8 8 8 6 6 7 6 5 5 5 5 5 5
10 10 10 10 10 10 10 10 10 10 10 10 10 10 10 9 9 9 9 9 8 8 8 7 8 8 8 7 6 6 6 6 6 6 5 5 5 5
10 10 10 10 10 10 10 10 10 10 10 10 10 10 9 9 9 9 8 8 8 8 7 8 8 7 6 6 6 6 5 5 6 7 7 7 6 6
10 10 10 10 10 10 10 10 10 10 9 9 9 9 9 9 8 8 8 8 8 7 7 7 7 6 6 6 6 6 5 5 5 5 5 7 7 7
Wind_Speed
8 10 8 7 7 7 6 6 6 5 6 4 3 2 3 4 4 7 9 12 13 12 12 10 9 8 8 7 7 7 7 8 8 8 9 9 9 10
4 6 6 5 6 6 5 5 4 4 3 3 3 3 2 3 4 6 6 8 10 10 10 10 9 9 8 8 8 8 9 10 10 10 10 10 10 10
5 5 5 5 5 4 4 4 4 4 3 2 2 2 3 4 4 5 6 7 8 9 8 8 7 7 7 7 7 8 9 10 10 10 10 11 11 11
4 5 6 5 5 5 5 5 5 5 4 4 3 3 3 3 3 4 4 5 5 7 6 5 4 3 2 3 4 5 7 8 9 9 9 10 10 10
3 4 4 5 5 4 5 5 4 4 4 4 4 3 3 3 4 4 5 4 6 8 8 8 7 6 5 4 3 3 3 4 5 6 7 7 8 8
2 2 3 3 4 4 4 5 5 5 5 5 4 4 4 4 5 6 5 5 5 6 8 9 11 11 11 9 8 6 4 3 3 4 4 4 5 5
1 0 1 1 1 2 3 5 6 5 5 5 5 4 4 4 4 5 6 6 6 4 6 6 7 7 8 10 10 10 9 8 7 6 6 6 6 6
2 1 1 3 4 4 2 1 2 4 5 5 5 5 5 5 4 5 7 7 4 3 5 6 7 7 9 11 12 13 12 12 12 11 11 11 11 12
2 1 0 1 3 5 7 6 4 4 2 2 4 5 5 6 6 6 5 5 6 5 6 6 6 8 10 13 15 16 16 16 15 15 15 16 16 17
3 1 1 1 1 4 8 8 7 6 3 3 5 6 6 5 5 6 8 9 8 4 4 4 5 6 8 12 17 18 19 18 18 17 16 16 16 17
4 3 1 2 2 1 7 10 10 8 12 16 16 13 13 10 5 6 7 7 6 4 3 4 5 6 6 7 14 19 20 20 19 18 16 14 11 9
3 4 5 4 2 1 6 9 10 10 10 10 10 10 10 8 3 4 4 5 7 4 4 4 6 5 4 4 6 8 12 16 19 19 19 18 15 8
3 3 4 5 4 2 1 6 9 10 9 9 8 8 7 7 6 7 5 3 4 5 4 3 4 3 4 4 4 6 7 7 8 11 15 17 19 15
4 3 5 5 5 4 4 10 9 8 8 8 7 7 7 7 7 9 10 11 10 8 4 1 2 3 4 5 4 4 6 7 6 6 8 8 11 14
5 7 7 5 5 7 10 9 7 7 8 8 8 7 7 7 7 8 10 12 13 11 8 6 4 3 3 5 5 4 3 4 5 5 6 7 8 8
6 7 8 8 7 9 8 6 5 5 6 8 8 7 7 6 6 6 6 6 7 8 10 10 9 7 7 7 6 5 4 3 3 3 4 5 7 8
4 5 5 6 6 6 6 6 6 6 7 7 8 7 6 6 5 4 4 4 6 6 7 8 12 13 11 7 6 5 4 3 2 2 2 3 5 6
4 7 6 6 6 6 6 6 6 6 6 6 7 6 6 6 5 4 4 5 6 6 6 6 6 6 6 6 8 3 3 2 2 1 1 1 3 4
7 7 6 6 6 6 6 6 6 6 5 6 6 6 6 6 6 5 5 5 5 5 4 3 2 3 3 3 3 5 2 2 1 1 1 1 2 3
6 6 6 5 5 5 5 6 6 6 5 6 6 6 6 6 6 5 5 5 5 5 4 2 1 0 0 2 3 3 4 2 1 1 1 1 1 3
5 5 5 5 5 5 5 5 5 5 5 5 5 5 5 5 5 5 5 4 3 4 3 3 2 1 2 3 4 4 3 3 3 3 3 3 3 3
4 4 4 4 4 4 4 4 5 5 5 5 5 5 5 5 5 5 5 4 4 3 4 4 4 3 3 2 3 4 3 3 4 2 0 2 4 3
3 3 3 3 3 2 3 3 4 4 4 4 5 5 5 5 4 4 4 4 4 4 5 5 4 3 2 3 3 2 2 2 2 3 3 5 5 8
Wind_Direction
211 209 206 204 201 206 210 210 212 215 214 205 196 188 215 228 184 218 220 193 204 210 211 209 209 210 220 230 240 249 253 252 253 255 258 265 272 278
196 198 198 198 195 197 200 203 208 210 207 181 187 178 190 206 197 229 218 165 196 205 207 209 212 216 225 237 245 251 255 255 256 258 260 265 271 276
171 175 177 171 177 184 190 191 195 200 201 172 165 186 197 203 183 208 201 198 183 185 195 201 208 218 235 248 257 261 262 262 263 265 267 270 273 276
161 167 167 168 175 180 184 190 192 194 192 182 175 186 192 186 183 182 182 186 166 141 150 157 166 180 225 267 277 275 273 271 270 270 274 277 281 284
162 175 176 174 178 186 190 192 193 189 188 190 172 165 170 171 170 163 163 154 140 128 119 108 97 89 73 51 18 336 310 295 290 289 287 288 292 295
155 163 178 186 188 191 192 191 189 181 184 185 171 165 159 170 177 164 147 130 122 117 102 100 96 87 74 62 51 42 32 16 357 336 322 318 321 323
39 126 197 200 219 209 203 192 188 183 179 180 169 162 159 166 169 159 140 127 103 108 108 97 96 81 73 63 55 53 57 57 54 50 43 38 35 32
19 349 219 197 191 183 164 125 175 187 178 175 172 165 153 150 148 148 147 149 123 107 103 86 82 75 61 56 54 60 62 63 62 61 60 60 58 55
54 36 356 128 183 160 150 150 116 61 14 179 155 145 144 146 152 151 148 128 113 124 113 95 89 83 73 60 59 63 63 64 64 66 69 69 68 66
62 61 61 114 156 164 160 146 125 105 101 127 116 109 112 128 134 128 119 113 108 108 122 107 104 94 86 70 63 65 64 65 66 67 69 71 72 70
64 67 68 121 73 243 157 137 121 102 72 71 74 82 71 61 80 129 138 137 124 115 112 117 128 112 94 91 78 74 70 67 65 63 60 56 57 73
72 84 66 70 91 299 156 143 133 126 122 113 107 111 103 93 41 120 140 141 137 126 134 141 157 148 115 83 75 76 76 76 72 66 58 47 31 43
72 85 80 74 87 32 94 133 129 133 127 121 113 106 99 91 82 77 72 85 119 112 136 160 168 167 136 130 88 64 61 65 73 75 68 60 50 42
62 71 80 78 88 75 93 108 122 133 129 127 118 108 100 90 83 80 78 71 70 87 96 112 136 151 141 135 122 101 71 57 56 58 62 84 77 70
65 66 71 79 107 102 104 123 145 138 135 131 120 109 105 106 101 95 91 86 77 66 62 67 92 109 114 119 120 124 105 65 49 55 56 50 48 45
86 92 91 82 90 99 121 132 131 125 132 128 122 120 119 118 115 114 113 112 94 76 63 66 75 86 90 91 101 99 92 92 61 57 62 60 55 50
84 97 98 104 102 104 107 107 114 124 122 126 128 130 129 124 116 110 110 110 109 106 98 88 83 79 69 70 102 95 99 95 76 45 46 70 63 51
81 89 86 88 95 101 105 105 106 112 120 127 129 133 135 132 127 122 121 119 118 120 122 128 131 129 118 76 37 83 93 93 89 42 349 36 69 58
82 81 80 81 85 90 96 103 105 110 118 125 130 133 134 135 136 134 131 127 127 129 130 147 185 210 201 149 96 28 37 89 109 101 25 351 21 41
73 77 78 79 83 91 99 107 113 119 122 126 129 133 139 142 142 141 138 139 140 142 140 132 106 339 295 126 130 106 37 12 335 343 341 284 241 210
74 76 77 82 87 94 101 111 118 123 126 129 129 135 143 146 145 144 134 131 158 161 156 129 102 300 109 134 140 139 112 65 16 355 337 307 282 262
83 84 80 81 89 97 108 120 126 127 133 135 136 142 146 150 151 155 156 163 166 156 141 130 149 181 186 189 168 151 153 157 158 163 10 335 322 314
102 99 95 90 87 99 121 135 141 142 145 147 149 151 154 156 159 162 165 168 164 161 161 159 160 164 165 168 175 169 172 214 254 243 207 190 235 261
Height
1515 1517 1519 1522 1524 1526 1529 1531 1535 1535 1537 1539 1541 1542 1545 1547 1549 1551 1554 1555 1557 1558 1559 1560 1561 1561 1562 1562 1562 1562 1562 1562 1562 1562 1561 1560 1560 1559
1512 1514 1516 1518 1520 1522 1524 1527 1530 1532 1534 1535 1537 1539 1541 1543 1545 1548 1550 1551 1554 1555 1556 1557 1558 1559 1560 1560 1560 1560 1560 1560 1559 1559 1558 1558 1557 1556
1510 1512 1514 1515 1517 1519 1521 1523 1525 1528 1531 1533 1534 1536 1538 1540 1542 1544 1547 1548 1550 1552 1553 1555 1556 1556 1557 1557 1557 1557 1557 1557 1556 1556 1555 1554 1553 1552
1509 1511 1512 1514 1516 1518 1520 1521 1524 1526 1529 1531 1532 1534 1536 1537 1539 1541 1543 1545 1547 1548 1550 1552 1553 1554 1554 1554 1554 1554 1554 1553 1553 1552 1551 1551 1550 1548
1508 1509 1511 1513 1515 1517 1519 1521 1523 1525 1527 1529 1530 1532 1533 1534 1536 1538 1540 1542 1544 1546 1547 1549 1550 1551 1551 1551 1551 1551 1551 1550 1549 1549 1548 1547 1546 1545
1507 1509 1511 1513 1514 1516 1518 1520 1522 1524 1525 1527 1529 1530 1531 1532 1535 1536 1538 1540 1542 1544 1545 1546 1547 1548 1549 1549 1549 1548 1548 1547 1546 1545 1544 1543 1542 1541
1507 1509 1510 1512 1514 1516 1518 1519 1521 1523 1524 1526 1527 1529 1530 1531 1533 1535 1536 1538 1540 1542 1543 1545 1546 1546 1547 1547 1546 1546 1545 1544 1544 1543 1542 1540 1539 1538
1507 1508 1510 1511 1513 1515 1517 1518 1520 1522 1524 1525 1526 1528 1529 1530 1532 1533 1535 1537 1539 1542 1543 1544 1545 1545 1545 1545 1545 1545 1544 1543 1542 1541 1540 1539 1537 1536
1506 1507 1509 1511 1513 1515 1516 1518 1519 1521 1523 1525 1526 1527 1529 1530 1531 1533 1535 1537 1538 1541 1543 1544 1545 1545 1545 1545 1545 1544 1544 1543 1542 1540 1539 1538 1537 1535
1506 1507 1509 1510 1513 1515 1516 1518 1520 1521 1523 1525 1527 1527 1529 1530 1531 1533 1535 1537 1539 1541 1543 1544 1546 1546 1546 1546 1545 1545 1544 1543 1542 1540 1539 1538 1537 1535
1506 1507 1509 1510 1512 1514 1517 1518 1520 1522 1523 1525 1526 1528 1529 1530 1532 1534 1536 1538 1540 1542 1543 1544 1546 1546 1547 1546 1546 1545 1545 1543 1542 1541 1540 1538 1537 1535
1506 1508 1509 1511 1513 1514 1517 1519 1521 1523 1525 1526 1528 1530 1531 1533 1534 1536 1538 1540 1540 1542 1543 1545 1546 1547 1547 1547 1547 1546 1545 1544 1543 1541 1540 1539 1537 1536
1507 1508 1509 1511 1513 1515 1518 1520 1522 1524 1526 1528 1530 1532 1533 1535 1536 1537 1538 1540 1541 1542 1543 1544 1546 1547 1547 1547 1547 1546 1546 1545 1543 1542 1540 1538 1537 1535
1507 1508 1510 1512 1514 1516 1519 1521 1523 1525 1528 1530 1532 1534 1535 1536 1537 1538 1538 1539 1540 1541 1542 1544 1545 1546 1546 1547 1547 1546 1546 1545 1544 1543 1541 1539 1537 1535
1508 1509 1511 1513 1515 1517 1519 1522 1524 1527 1529 1531 1533 1535 1536 1537 1538 1539 1540 1541 1541 1542 1542 1543 1544 1545 1546 1546 1546 1546 1546 1545 1544 1543 1542 1540 1538 1536
1511 1511 1512 1514 1516 1518 1520 1523 1526 1528 1530 1532 1534 1536 1537 1538 1540 1541 1541 1542 1542 1543 1543 1543 1544 1545 1545 1546 1546 1546 1546 1545 1544 1543 1542 1541 1539 1536
1513 1514 1515 1516 1518 1519 1522 1524 1526 1529 1531 1533 1535 1537 1538 1539 1540 1541 1542 1543 1544 1544 1544 1544 1544 1544 1545 1546 1546 1546 1545 1544 1543 1542 1542 1541 1539 1537
1516 1517 1517 1518 1520 1522 1524 1526 1528 1530 1532 1534 1536 1537 1539 1540 1541 1542 1542 1543 1544 1544 1544 1544 1545 1545 1546 1545 1545 1545 1545 1544 1543 1542 1542 1542 1541 1538
1519 1520 1520 1521 1523 1524 1526 1527 1529 1531 1533 1535 1536 1537 1539 1540 1541 1542 1542 1543 1543 1544 1544 1544 1545 1546 1547 1547 1545 1544 1545 1544 1543 1543 1542 1541 1540 1538
1522 1523 1523 1524 1525 1526 1527 1529 1530 1532 1534 1535 1536 1537 1539 1540 1541 1541 1542 1542 1543 1543 1543 1543 1543 1544 1546 1546 1545 1543 1543 1543 1543 1543 1541 1540 1538 1536
1525 1525 1526 1526 1527 1528 1529 1530 1532 1533 1534 1535 1536 1537 1538 1539 1540 1541 1541 1541 1542 1543 1543 1542 1541 1542 1542 1543 1544 1543 1542 1541 1540 1540 1539 1539 1538 1537
1526 1527 1527 1528 1528 1529 1530 1531 1532 1533 1534 1535 1536 1537 1538 1539 1539 1540 1540 1541 1541 1542 1541 1541 1540 1541 1542 1543 1543 1543 1541 1540 1539 1538 1537 1536 1535 1534
1527 1527 1527 1528 1528 1529 1530 1531 1532 1533 1534 1534 1535 1536 1536 1537 1538 1538 1539 1539 1540 1540 1540 1540 1540 1540 1541 1541 1542 1541 1541 1540 1539 1538 1536 1534 1533 1532